Sioux Falls, SD

12:14 AM CDT on May 24, 2017 (GMT -0500)
Foss

Weather History for KFSD - September, 2013

Change the Weather History Date:

Thursday, September 19, 2013

  Actual Average Record
Temperature  
Mean Temperature 64 °F 60 °F  
Max Temperature 76 °F 72 °F 100 °F (1895)
Min Temperature 51 °F 48 °F 27 °F (1991)
Degree Days  
Heating Degree Days 1 7  
Month to date heating degree days 31 76  
Since 1 July heating degree days 65 107  
Cooling Degree Days 0 1  
Month to date cooling degree days 106 52  
Year to date cooling degree days 760 677  
Growing Degree Days 14 (Base 50)    
Moisture  
Dew Point 59 °F    
Average Humidity 68    
Maximum Humidity 93    
Minimum Humidity 43    
Precipitation  
Precipitation 0.07 in 0.09 in 1.90 in (1923)
Month to date precipitation 0.29 1.79  
Year to date precipitation 20.71 21.18  
Snow  
Snow 0.00 in 0.00 in 0.00 in ()
Month to date snowfall 0.0 0.0  
Since 1 July snowfall 0.0 0.0  
Since 1 September snowfall 0.0 0.0  
Snow Depth 0.00 in    
Sea Level Pressure  
Sea Level Pressure 29.77 in    
Wind  
Wind Speed 11 mph (NW)    
Max Wind Speed 25 mph    
Max Gust Speed 35 mph    
Visibility 10 miles    
Events Rain , Thunderstorm    
T = Trace of Precipitation, MM = Missing Value Source: NWS Daily Summary

Daily Weather History Graph

Daily Weather History Graph

Search for Another Location

Airport or City:

Trip Planner

Search our weather history database for the weather conditions in past years. The results will help you decide how hot, cold, wet, or windy it might be!

Date:

Astronomy

Sep. 19, 2013 Rise Set
Actual Time 7:11 AM CDT 7:29 PM CDT
Civil Twilight 6:42 AM CDT 7:57 PM CDT
Nautical Twilight 6:08 AM CDT 8:31 PM CDT
Astronomical Twilight 5:34 AM CDT 9:06 PM CDT
Moon 7:25 PM CDT (9/19) 7:23 AM CDT (9/19)
Length of Visible Light 13h 15m
Length of Day
12h 18m
Full, 100% of the Moon is Illuminated
Sep 19
Full
Sep 26
Last Quarter
Oct 4
New
Oct 11
First Quarter
Oct 18
Full

Hourly Weather History & Observations

Time (CDT) Temp. Dew Point Humidity Pressure Visibility Wind Dir Wind Speed Gust Speed Precip Events Conditions
12:56 AM 75.9 °F 66.9 °F 74% 29.60 in 10.0 mi South 9.2 mph - N/A   Clear
1:56 AM 75.0 °F 66.0 °F 73% 29.60 in 10.0 mi South 11.5 mph - N/A   Clear
2:56 AM 73.9 °F 66.0 °F 76% 29.61 in 10.0 mi NNE 6.9 mph - N/A   Clear
3:56 AM 72.0 °F 66.0 °F 81% 29.60 in 10.0 mi North 8.1 mph - N/A   Clear
4:56 AM 71.6 °F 64.4 °F 78% 29.60 in 10.0 mi SSW 8.1 mph - N/A   Mostly Cloudy
5:56 AM 71.1 °F 64.9 °F 81% 29.61 in 10.0 mi WNW 16.1 mph 29.9 mph N/A   Overcast
6:40 AM 69.8 °F 62.6 °F 78% 29.67 in 10.0 mi NW 20.7 mph 32.2 mph 0.00 in Rain , Thunderstorm Light Thunderstorms and Rain
6:50 AM 66.2 °F 62.6 °F 88% 29.69 in 2.0 mi NW 19.6 mph 32.2 mph 0.04 in Rain , Thunderstorm Heavy Thunderstorms and Rain
6:56 AM 66.0 °F 63.0 °F 90% 29.66 in 6.0 mi NNW 13.8 mph 26.5 mph 0.05 in Rain , Thunderstorm Light Thunderstorms and Rain
7:22 AM 64.4 °F 62.6 °F 94% 29.68 in 10.0 mi North 15.0 mph 21.9 mph 0.00 in Rain Light Rain
7:56 AM 66.0 °F 63.0 °F 90% 29.66 in 10.0 mi North 18.4 mph 28.8 mph 0.00 in   Overcast
8:56 AM 66.9 °F 63.0 °F 87% 29.73 in 10.0 mi WSW 5.8 mph 17.3 mph N/A   Overcast
9:08 AM 66.2 °F 62.6 °F 88% 29.76 in 10.0 mi West 5.8 mph - N/A   Overcast
9:56 AM 66.9 °F 64.0 °F 90% 29.73 in 10.0 mi WNW 13.8 mph - 0.00 in   Overcast
10:56 AM 68.0 °F 62.1 °F 81% 29.78 in 10.0 mi NW 9.2 mph - N/A   Overcast
11:03 AM 68.0 °F 62.6 °F 83% 29.81 in 10.0 mi NNW 11.5 mph - N/A   Overcast
11:45 AM 66.2 °F 60.8 °F 83% 29.84 in 10.0 mi NNW 10.4 mph - N/A   Overcast
11:56 AM 66.0 °F 59.0 °F 78% 29.83 in 10.0 mi NNW 12.7 mph - N/A   Overcast
12:56 PM 69.1 °F 59.0 °F 70% 29.84 in 10.0 mi NW 10.4 mph - N/A   Mostly Cloudy
1:56 PM 73.9 °F 55.9 °F 53% 29.83 in 10.0 mi NW 15.0 mph 20.7 mph N/A   Mostly Cloudy
2:56 PM 75.0 °F 51.1 °F 43% 29.83 in 10.0 mi NW 18.4 mph 26.5 mph N/A   Mostly Cloudy
3:56 PM 71.1 °F 50.0 °F 47% 29.86 in 10.0 mi NW 17.3 mph 27.6 mph N/A   Mostly Cloudy
4:56 PM 68.0 °F 48.0 °F 49% 29.88 in 10.0 mi WNW 15.0 mph 25.3 mph N/A   Mostly Cloudy
5:56 PM 63.0 °F 48.9 °F 60% 29.88 in 10.0 mi NW 12.7 mph - 0.00 in   Overcast
6:56 PM 57.9 °F 53.1 °F 84% 29.91 in 10.0 mi WNW 6.9 mph - 0.02 in Rain Light Rain
7:56 PM 57.0 °F 54.0 °F 89% 29.91 in 10.0 mi NW 8.1 mph - 0.00 in   Scattered Clouds
8:56 PM 55.9 °F 52.0 °F 87% 29.94 in 10.0 mi WNW 8.1 mph - N/A   Partly Cloudy
9:56 PM 53.1 °F 50.0 °F 89% 29.96 in 10.0 mi NW 5.8 mph - N/A   Partly Cloudy
10:56 PM 54.0 °F 48.0 °F 80% 29.97 in 10.0 mi WNW 8.1 mph - N/A   Clear
11:56 PM 52.0 °F 46.0 °F 80% 29.98 in 10.0 mi WNW 9.2 mph - N/A   Clear